Back to catalog

STARLINK-3229

AliveCommunicationsVLEO
NORAD 49751·PAYLOAD·🇺🇸 United States

Launched Dec 2, 2021 from Cape Canaveral Space Force Station

Loading…

Next Passes (next 24 hours)

TLE

FreshSource: CelesTrak SupGP

Epoch: Sep 14, 2026, 13:40 UTC

1 49751C 21115AD  26257.56993056 -.00064553  00000+0 -19090-2 0  2573
2 49751  53.1601  15.7891 0001313  85.5127 240.4584 15.34393812    18

Track STARLINK-3229 in real time with AllMySat

Download on the App Store